| time (UTC) | temp F | wind direction | speed knots | gust knots | rain 1hr in | rain 24hr in | rain mn in | humidity % | barometer mb |
| 20260510224551 | 55 | 0 | 0.0 | 0.0 | 0.00 | 0.05 | 0.00 | 86 | 1011.9 |
| 20260510223052 | 56 | 193 | 0.0 | 0.0 | 0.00 | 0.05 | 0.00 | 85 | 1012.1 |
| 20260510221556 | 56 | 0 | 0.0 | 0.0 | 0.00 | 0.05 | 0.00 | 84 | 1012.0 |
| 20260510220110 | 56 | 0 | 0.0 | 0.0 | 0.00 | 0.05 | 0.00 | 82 | 1011.8 |
| 20260510214553 | 57 | 0 | 0.0 | 0.0 | 0.00 | 0.05 | 0.05 | 82 | 1011.9 |
| 20260510213053 | 57 | 0 | 0.0 | 0.0 | 0.00 | 0.05 | 0.05 | 80 | 1011.9 |
| 20260510211551 | 58 | 0 | 0.0 | 0.0 | 0.00 | 0.05 | 0.05 | 79 | 1011.9 |
| 20260510210056 | 59 | 0 | 0.0 | 3.5 | 0.00 | 0.05 | 0.05 | 78 | 1011.7 |
| 20260510204555 | 59 | 174 | 0.0 | 2.6 | 0.00 | 0.05 | 0.05 | 78 | 1011.4 |
| 20260510203053 | 60 | 313 | 0.9 | 4.3 | 0.00 | 0.05 | 0.05 | 78 | 1011.3 |
| 20260510201550 | 60 | 358 | 1.7 | 5.2 | 0.00 | 0.05 | 0.05 | 78 | 1010.9 |
| 20260510200051 | 60 | 3 | 2.6 | 8.7 | 0.00 | 0.05 | 0.05 | 76 | 1010.4 |
| 20260510194604 | 61 | 176 | 2.6 | 10.4 | 0.00 | 0.05 | 0.05 | 74 | 1010.4 |
| 20260510193050 | 62 | 176 | 3.5 | 7.0 | 0.00 | 0.05 | 0.05 | 71 | 1010.2 |
| 20260510191607 | 62 | 119 | 2.6 | 5.2 | 0.00 | 0.05 | 0.05 | 71 | 1010.0 |
| 20260510190101 | 62 | 358 | 1.7 | 4.3 | 0.00 | 0.05 | 0.05 | 72 | 1009.7 |
| 20260510184549 | 63 | 291 | 0.9 | 4.3 | 0.00 | 0.06 | 0.05 | 73 | 1009.5 |
| 20260510183055 | 64 | 300 | 0.9 | 6.1 | 0.00 | 0.06 | 0.05 | 68 | 1009.3 |
| 20260510181601 | 65 | 256 | 1.7 | 4.3 | 0.00 | 0.06 | 0.05 | 65 | 1009.0 |
| 20260510180109 | 65 | 0 | 0.0 | 2.6 | 0.00 | 0.06 | 0.05 | 65 | 1008.8 |
| 20260510174555 | 66 | 0 | 0.0 | 3.5 | 0.00 | 0.19 | 0.05 | 67 | 1008.7 |
| 20260510173055 | 66 | 86 | 0.0 | 4.3 | 0.00 | 0.19 | 0.05 | 66 | 1008.3 |
| 20260510171604 | 68 | 53 | 0.9 | 5.2 | 0.00 | 0.19 | 0.05 | 65 | 1008.4 |
| 20260510170054 | 67 | 56 | 0.0 | 3.5 | 0.00 | 0.19 | 0.05 | 66 | 1008.5 |
| 20260510164600 | 68 | 86 | 0.0 | 4.3 | 0.00 | 0.19 | 0.05 | 64 | 1008.3 |
| 20260510163116 | 69 | 0 | 0.9 | 5.2 | 0.00 | 0.19 | 0.05 | 60 | 1008.5 |
| 20260510161602 | 70 | 68 | 0.9 | 2.6 | 0.00 | 0.19 | 0.05 | 59 | 1008.3 |
| 20260510160109 | 69 | 98 | 0.9 | 4.3 | 0.00 | 0.19 | 0.05 | 58 | 1008.5 |
| 20260510154554 | 69 | 94 | 0.0 | 2.6 | 0.00 | 0.19 | 0.05 | 65 | 1008.4 |
| 20260510153059 | 69 | 0 | 0.9 | 3.5 | 0.00 | 0.19 | 0.05 | 65 | 1008.7 |
| 20260510151555 | 67 | 35 | 0.9 | 3.5 | 0.00 | 0.19 | 0.05 | 68 | 1008.6 |
| 20260510144553 | 64 | 51 | 0.9 | 3.5 | 0.00 | 0.19 | 0.05 | 71 | 1009.1 |
| 20260510143107 | 64 | 79 | 1.7 | 6.1 | 0.00 | 0.19 | 0.05 | 72 | 1009.4 |
| 20260510141554 | 62 | 193 | 0.9 | 5.2 | 0.00 | 0.19 | 0.05 | 78 | 1009.5 |
| 20260510140055 | 62 | 82 | 1.7 | 7.8 | 0.00 | 0.19 | 0.05 | 78 | 1009.8 |
| 20260510134603 | 59 | 39 | 0.9 | 2.6 | 0.05 | 0.19 | 0.05 | 83 | 1009.7 |
| 20260510133059 | 58 | 51 | 0.0 | 3.5 | 0.05 | 0.19 | 0.05 | 81 | 1009.6 |
| 20260510131600 | 58 | 0 | 0.9 | 12.2 | 0.05 | 0.19 | 0.05 | 80 | 1010.4 |
| 20260510124554 | 63 | 175 | 4.3 | 10.4 | 0.00 | 0.14 | 0.00 | 71 | 1010.4 |
| 20260510123101 | 66 | 176 | 0.0 | 2.6 | 0.00 | 0.14 | 0.00 | 66 | 1009.1 |
| 20260510121554 | 67 | 43 | 0.9 | 7.0 | 0.00 | 0.14 | 0.00 | 63 | 1009.2 |
| 20260510120054 | 68 | 289 | 0.9 | 4.3 | 0.00 | 0.14 | 0.00 | 57 | 1009.2 |
| 20260510114553 | 69 | 98 | 0.0 | 1.7 | 0.00 | 0.14 | 0.00 | 61 | 1009.2 |
| 20260510113101 | 70 | 0 | 0.0 | 1.7 | 0.00 | 0.14 | 0.00 | 56 | 1009.2 |
| 20260510111559 | 71 | 0 | 0.0 | 1.7 | 0.00 | 0.14 | 0.00 | 59 | 1009.1 |
| 20260510110053 | 71 | 0 | 0.9 | 1.7 | 0.00 | 0.14 | 0.00 | 55 | 1009.2 |
| 20260510104601 | 70 | 0 | 0.0 | 1.7 | 0.00 | 0.14 | 0.00 | 58 | 1009.3 |
| 20260510103102 | 71 | 176 | 0.0 | 2.6 | 0.00 | 0.14 | 0.00 | 56 | 1009.4 |
| 20260510101556 | 72 | 130 | 0.0 | 3.5 | 0.00 | 0.14 | 0.00 | 56 | 1009.6 |
| 20260510100056 | 71 | 223 | 0.0 | 2.6 | 0.00 | 0.14 | 0.00 | 54 | 1009.8 |
| 20260510094555 | 70 | 0 | 0.9 | 2.6 | 0.00 | 0.14 | 0.00 | 56 | 1009.8 |
| 20260510093105 | 67 | 231 | 2.6 | 5.2 | 0.00 | 0.14 | 0.00 | 57 | 1009.9 |
| 20260510091557 | 67 | 325 | 1.7 | 5.2 | 0.00 | 0.14 | 0.00 | 58 | 1009.9 |
| 20260510090059 | 66 | 195 | 0.9 | 9.6 | 0.00 | 0.14 | 0.00 | 58 | 1010.0 |
| 20260510084602 | 65 | 246 | 0.9 | 5.2 | 0.00 | 0.14 | 0.00 | 60 | 1010.2 |
| 20260510083055 | 65 | 0 | 0.9 | 5.2 | 0.00 | 0.14 | 0.00 | 61 | 1010.2 |
| 20260510081622 | 65 | 359 | 1.7 | 4.3 | 0.00 | 0.14 | 0.00 | 61 | 1010.0 |
| 20260510080051 | 67 | 0 | 0.9 | 6.1 | 0.00 | 0.14 | 0.00 | 60 | 1009.9 |
| 20260510074555 | 66 | 249 | 0.0 | 2.6 | 0.00 | 0.14 | 0.00 | 62 | 1010.0 |
| 20260510073104 | 64 | 314 | 0.9 | 2.6 | 0.00 | 0.14 | 0.00 | 64 | 1010.0 |
| 20260510071551 | 64 | 255 | 0.9 | 5.2 | 0.00 | 0.14 | 0.00 | 63 | 1009.8 |
| 20260510070056 | 63 | 176 | 0.0 | 3.5 | 0.00 | 0.14 | 0.00 | 64 | 1009.7 |
| 20260510064600 | 61 | 260 | 1.7 | 6.1 | 0.00 | 0.14 | 0.00 | 66 | 1009.6 |
| 20260510063054 | 61 | 176 | 0.9 | 6.1 | 0.00 | 0.14 | 0.00 | 67 | 1009.3 |
| 20260510061550 | 60 | 176 | 0.9 | 6.1 | 0.00 | 0.14 | 0.00 | 67 | 1009.1 |
| 20260510060053 | 60 | 0 | 0.0 | 3.5 | 0.00 | 0.14 | 0.00 | 68 | 1009.0 |
| 20260510054552 | 60 | 193 | 0.0 | 4.3 | 0.00 | 0.14 | 0.00 | 68 | 1008.9 |
| 20260510053105 | 60 | 0 | 0.0 | 0.9 | 0.00 | 0.14 | 0.00 | 69 | 1008.9 |
| 20260510051602 | 60 | 0 | 0.0 | 0.0 | 0.00 | 0.14 | 0.00 | 69 | 1008.6 |
| 20260510050110 | 61 | 0 | 0.0 | 2.6 | 0.00 | 0.14 | 0.00 | 68 | 1008.3 |
| 20260510044603 | 61 | 176 | 0.0 | 2.6 | 0.00 | 0.14 | 0.00 | 69 | 1008.4 |
| 20260510043059 | 61 | 172 | 0.0 | 2.6 | 0.00 | 0.14 | 0.00 | 70 | 1008.5 |
| 20260510041551 | 61 | 261 | 0.0 | 2.6 | 0.00 | 0.14 | 0.00 | 70 | 1008.3 |
| 20260510040053 | 60 | 281 | 0.0 | 1.7 | 0.00 | 0.14 | 0.00 | 71 | 1008.4 |
| 20260510034556 | 61 | 0 | 0.0 | 0.9 | 0.00 | 0.14 | 0.00 | 72 | 1008.4 |
| 20260510033103 | 61 | 0 | 0.0 | 1.7 | 0.00 | 0.14 | 0.00 | 71 | 1008.1 |
| 20260510031554 | 61 | 45 | 0.0 | 2.6 | 0.00 | 0.14 | 0.00 | 72 | 1008.0 |
| 20260510030107 | 61 | 0 | 0.0 | 0.9 | 0.00 | 0.14 | 0.00 | 73 | 1008.1 |
| 20260510024553 | 61 | 45 | 0.0 | 1.7 | 0.00 | 0.14 | 0.00 | 73 | 1008.0 |
| 20260510023052 | 61 | 46 | 0.0 | 0.9 | 0.00 | 0.14 | 0.00 | 75 | 1008.3 |
| 20260510021551 | 61 | 0 | 0.0 | 1.7 | 0.00 | 0.14 | 0.00 | 76 | 1008.1 |
| 20260510020052 | 60 | 0 | 0.0 | 3.5 | 0.00 | 0.14 | 0.00 | 77 | 1007.9 |
| 20260510014601 | 60 | 110 | 0.9 | 3.5 | 0.00 | 0.14 | 0.00 | 78 | 1007.9 |
| 20260510013051 | 60 | 0 | 0.0 | 1.7 | 0.00 | 0.14 | 0.00 | 81 | 1008.2 |
| 20260510011549 | 59 | 86 | 0.9 | 5.2 | 0.00 | 0.14 | 0.00 | 83 | 1008.0 |
| 20260510010054 | 59 | 0 | 0.9 | 2.6 | 0.00 | 0.14 | 0.00 | 84 | 1008.1 |
| 20260510004551 | 60 | 46 | 0.0 | 1.7 | 0.00 | 0.14 | 0.00 | 83 | 1008.1 |
| 20260510003100 | 60 | 0 | 0.0 | 0.9 | 0.00 | 0.14 | 0.00 | 82 | 1008.3 |
| 20260510001556 | 60 | 0 | 0.0 | 0.9 | 0.00 | 0.14 | 0.00 | 83 | 1008.4 |
| 20260509234557 | 59 | 0 | 0.0 | 0.9 | 0.00 | 0.14 | 0.00 | 88 | 1008.5 |
| 20260509233059 | 59 | 0 | 0.0 | 0.9 | 0.00 | 0.14 | 0.00 | 89 | 1008.7 |
| 20260509231556 | 59 | 0 | 0.0 | 0.9 | 0.00 | 0.14 | 0.00 | 89 | 1008.6 |
| 20260509230053 | 59 | 0 | 0.0 | 1.7 | 0.00 | 0.14 | 0.00 | 89 | 1008.6 |